, FL

(GMT )
Bonifay

Weather History for K1J0 - August, 2019

Change the Weather History Date:

Sunday, August 18, 2019

  Actual Average Record
Temperature  
Mean Temperature 84 °F -  
Max Temperature 95 °F - - ()
Min Temperature 73 °F - - ()
Cooling Degree Days 19    
Growing Degree Days 34 (Base 50)    
Moisture  
Dew Point 75 °F    
Average Humidity 83    
Maximum Humidity 97    
Minimum Humidity 49    
Precipitation  
Precipitation 0.00 in - - ()
Sea Level Pressure  
Sea Level Pressure 29.91 in    
Wind  
Wind Speed 3 mph (NNE)    
Max Wind Speed 10 mph    
Max Gust Speed 20 mph    
Visibility 9 miles    
Events Rain , Thunderstorm    
T = Trace of Precipitation, MM = Missing Value Source: NWS Daily Summary

Daily Weather History Graph

Daily Weather History Graph

Search for Another Location

Airport or City:

Astronomy

Aug. 18, 2019 Rise Set
Actual Time 7:10 AM EDT 8:21 PM EDT
Civil Twilight 6:45 AM EDT 8:46 PM EDT
Nautical Twilight 6:15 AM EDT 9:16 PM EDT
Astronomical Twilight 5:43 AM EDT 9:47 PM EDT
Moon 10:26 PM EDT 9:46 AM EDT
Length of Visible Light 14h 01m
Length of Day
13h 11m
Waning Gibbous, 91% of the Moon is Illuminated
Aug 18
Waning Gibbous
Aug 23
Last Quarter
Aug 30
New
Sep 5
First Quarter
Sep 14
Full

Hourly Weather History & Observations

Time (EDT) Temp. Heat Index Dew Point Humidity Pressure Visibility Wind Dir Wind Speed Gust Speed Precip Events Conditions
12:58 AM 75.9 °F - 73.0 °F 91% 29.88 in 10.0 mi Calm Calm - N/A   Partly Cloudy
1:58 AM 75.0 °F - 73.0 °F 94% 29.87 in 10.0 mi Calm Calm - N/A   Clear
2:28 AM 75.9 °F - 73.0 °F 91% 29.99 in 10.0 mi Calm Calm - N/A   Mostly Cloudy
2:58 AM 75.0 °F - 73.0 °F 94% 29.86 in 9.0 mi Calm Calm - N/A   Scattered Clouds
3:58 AM 75.0 °F - 73.0 °F 94% 29.84 in 8.0 mi Calm Calm - N/A   Partly Cloudy
4:21 AM 75.0 °F - 73.0 °F 94% 29.95 in 7.0 mi NNE 4.6 mph - N/A   Mostly Cloudy
4:58 AM 75.0 °F - 73.0 °F 94% 29.83 in 8.0 mi NE 3.5 mph - N/A   Overcast
5:58 AM 75.0 °F - 73.9 °F 96% 29.83 in 8.0 mi Calm Calm - N/A   Mostly Cloudy
6:58 AM 75.9 °F - 73.9 °F 94% 29.85 in 8.0 mi NE 4.6 mph - N/A   Overcast
7:58 AM 77.0 °F - 73.9 °F 90% 29.85 in 8.0 mi NE 3.5 mph - N/A   Overcast
8:58 AM 78.1 °F - 75.0 °F 90% 29.87 in 9.0 mi NE 4.6 mph - N/A   Overcast
9:58 AM 81.0 °F 87.3 °F 75.9 °F 85% 29.88 in 10.0 mi Variable 4.6 mph - N/A   Overcast
10:44 AM 82.9 °F 90.8 °F 75.9 °F 79% 30.01 in 10.0 mi Variable 3.5 mph - N/A   Overcast
10:58 AM 84.9 °F 95.3 °F 77.0 °F 77% 29.89 in 10.0 mi NW 4.6 mph - N/A   Overcast
11:25 AM 84.0 °F 93.7 °F 77.0 °F 79% 30.01 in 10.0 mi NW 5.8 mph - N/A   Mostly Cloudy
11:57 AM 84.0 °F 92.6 °F 75.9 °F 76% 29.91 in 10.0 mi NW 4.6 mph - N/A   Scattered Clouds
12:05 PM 84.9 °F 94.1 °F 75.9 °F 74% 30.03 in 10.0 mi Variable 4.6 mph - N/A Thunderstorm Thunderstorm
12:20 PM 86.0 °F 96.9 °F 77.0 °F 74% 30.03 in 10.0 mi WNW 3.5 mph - N/A   Clear
12:42 PM 87.1 °F 97.3 °F 75.9 °F 69% 30.02 in 10.0 mi NW 4.6 mph - N/A Thunderstorm Partly Cloudy
12:58 PM 90.0 °F 101.3 °F 75.9 °F 63% 29.89 in 10.0 mi NNW 6.9 mph - N/A Thunderstorm Thunderstorm
1:15 PM 84.9 °F 95.3 °F 77.0 °F 77% 30.00 in 10.0 mi Calm Calm - 0.00 in   Mostly Cloudy
1:58 PM 93.0 °F 104.6 °F 75.0 °F 56% 29.86 in 10.0 mi North 10.4 mph 16.1 mph 0.00 in   Partly Cloudy
2:58 PM 95.0 °F 104.5 °F 73.0 °F 49% 29.85 in 10.0 mi Variable 6.9 mph - N/A   Scattered Clouds
3:58 PM 91.9 °F 100.7 °F 73.0 °F 54% 29.84 in 10.0 mi NE 8.1 mph - N/A   Mostly Cloudy
4:58 PM 87.1 °F 97.3 °F 75.9 °F 69% 29.84 in 10.0 mi East 10.4 mph 19.6 mph N/A   Mostly Cloudy
5:14 PM 82.0 °F 91.0 °F 78.1 °F 88% 29.97 in 2.0 mi East 6.9 mph - 0.05 in Rain Heavy Rain
5:37 PM 82.9 °F 92.8 °F 78.1 °F 85% 29.98 in 10.0 mi SE 3.5 mph - 0.05 in Thunderstorm Thunderstorm
6:18 PM 81.0 °F 87.9 °F 77.0 °F 88% 29.98 in 10.0 mi South 10.4 mph - N/A Thunderstorm Scattered Clouds
6:58 PM 79.0 °F - 73.9 °F 84% 29.86 in 10.0 mi SSW 4.6 mph - N/A Thunderstorm Thunderstorm
7:58 PM 75.9 °F - 73.0 °F 91% 29.87 in 10.0 mi South 3.5 mph - N/A   Clear
8:34 PM 75.9 °F - 73.0 °F 91% 30.00 in 10.0 mi Calm Calm - N/A Thunderstorm Thunderstorm
8:58 PM 75.0 °F - 73.0 °F 94% 29.87 in 10.0 mi Calm Calm - N/A   Clear
9:58 PM 73.9 °F - 73.0 °F 97% 29.89 in 10.0 mi SSW 3.5 mph - N/A   Clear
10:58 PM 73.9 °F - 72.0 °F 93% 29.91 in 10.0 mi SSW 3.5 mph - N/A   Mostly Cloudy
11:58 PM 73.9 °F - 72.0 °F 93% 29.91 in 10.0 mi South 4.6 mph - N/A   Clear